FW7079 Weather Reports


Display with metric or nautical units.
time (UTC)temp
F
wind
direction
speed
MPH
gust
MPH
rain 1hr
in
rain 24hr
in
rain mn
in
humidity
%
barometer
mb
20260831111611 73 0 0.0 0.0 0.00 0.00 0.00 73 1015.7
20260831110100 74 0 0.0 0.0 0.00 0.00 0.00 70 1015.5
20260831104604 75 0 0.0 0.0 0.00 0.00 0.00 69 1015.4
20260831103100 77 0 0.0 0.0 0.00 0.00 0.00 67 1015.4
20260831101606 78 0 0.0 1.0 0.00 0.00 0.00 63 1015.3
20260831100106 79 0 0.0 1.0 0.00 0.00 0.00 62 1015.2
20260831094608 79 0 0.0 2.0 0.00 0.00 0.00 60 1015.1
20260831093126 78 0 0.0 1.0 0.00 0.00 0.00 63 1015.0
20260831091607 77 132 0.0 0.0 0.00 0.00 0.00 64 1014.9
20260831090124 78 0 0.0 0.0 0.00 0.00 0.00 63 1014.8
20260831084612 79 0 0.0 1.0 0.00 0.00 0.00 61 1014.7
20260831083112 79 0 0.0 1.0 0.00 0.00 0.00 61 1014.8
20260831081608 79 0 0.0 1.0 0.00 0.00 0.00 60 1014.9
20260831080108 78 0 0.0 0.0 0.00 0.00 0.00 60 1014.9
20260831074610 78 0 0.0 0.0 0.00 0.00 0.00 60 1014.7
20260831073107 79 0 0.0 0.0 0.00 0.00 0.00 61 1014.7
20260831071601 80 0 0.0 1.0 0.00 0.00 0.00 57 1014.8
20260831070108 80 0 0.0 1.0 0.00 0.00 0.00 56 1014.6
20260831064604 80 0 0.0 1.0 0.00 0.00 0.00 57 1014.7
20260831063103 81 0 0.0 1.0 0.00 0.00 0.00 56 1014.6
20260831061558 82 0 0.0 1.0 0.00 0.00 0.00 55 1014.6
20260831060105 83 0 0.0 2.0 0.00 0.00 0.00 53 1014.6
20260831054604 84 0 0.0 1.0 0.00 0.00 0.00 52 1014.5
20260831053101 86 0 1.0 2.0 0.00 0.00 0.00 49 1014.4
20260831051612 86 138 0.0 3.0 0.00 0.00 0.00 49 1014.2
20260831050104 87 0 0.0 6.0 0.00 0.00 0.00 49 1014.3
20260831044617 87 142 1.0 6.0 0.00 0.00 0.00 49 1014.3
20260831043059 87 136 1.0 3.0 0.00 0.00 0.00 49 1014.2
20260831041605 87 126 1.0 5.0 0.00 0.00 0.00 49 1014.2
20260831040104 87 180 0.0 2.0 0.00 0.00 0.00 49 1014.2
20260831034608 88 126 1.0 5.0 0.00 0.00 0.00 48 1014.1
20260831033116 88 155 1.0 3.0 0.00 0.00 0.00 47 1014.1
20260831031600 88 132 0.0 3.0 0.00 0.00 0.00 48 1014.1
20260831024557 89 0 0.0 2.0 0.00 0.00 0.00 46 1013.6
20260831023058 88 128 0.0 4.0 0.00 0.00 0.00 47 1013.3
20260831021601 87 169 0.0 1.0 0.00 0.00 0.00 48 1013.1
20260831020059 88 0 0.0 0.0 0.00 0.00 0.00 47 1012.8
20260831014603 90 0 0.0 0.0 0.00 0.00 0.00 44 1012.6
20260831013100 92 0 0.0 1.0 0.00 0.00 0.00 41 1012.5
20260831011601 94 147 0.0 2.0 0.00 0.00 0.00 39 1012.3
20260831010107 95 148 0.0 2.0 0.00 0.00 0.00 39 1012.2
20260831004602 96 142 1.0 3.0 0.00 0.00 0.00 38 1012.2
20260831003102 97 136 0.0 8.0 0.00 0.00 0.00 37 1012.1
20260831001610 98 132 3.0 6.0 0.00 0.00 0.00 35 1012.0
20260831000106 99 148 1.0 5.0 0.00 0.00 0.00 34 1012.1
20260830234605 99 157 2.0 8.0 0.00 0.00 0.00 34 1012.2
20260830233106 100 148 2.0 6.0 0.00 0.00 0.00 33 1012.2
20260830231605 100 136 3.0 9.0 0.00 0.00 0.00 32 1012.1
20260830224600 101 126 3.0 10.0 0.00 0.00 0.00 32 1012.1
20260830223106 101 66 3.0 10.0 0.00 0.00 0.00 33 1012.0
20260830221601 102 132 2.0 10.0 0.00 0.00 0.00 31 1012.1
20260830214626 102 136 2.0 8.0 0.00 0.00 0.00 30 1012.3
20260830213106 103 148 2.0 8.0 0.00 0.00 0.00 29 1012.5
20260830211607 103 126 3.0 7.0 0.00 0.00 0.00 29 1012.6
20260830210116 103 119 2.0 3.0 0.00 0.00 0.00 30 1012.7
20260830204600 103 0.0 0.0 0.00 0.00 0.00 29 1013.0
20260830203109 103 0.0 0.0 0.00 0.00 0.00 30 1013.2
20260830201607 104 0.0 0.0 0.00 0.00 0.00 30 1013.4
20260830200107 104 0.0 0.0 0.00 0.00 0.00 30 1013.6
20260830194606 103 0.0 0.0 0.00 0.00 0.00 30 1013.8
20260830193129 103 0.0 0.0 0.00 0.00 0.00 30 1013.8
20260830191606 103 0.0 0.0 0.00 0.00 0.00 32 1013.9
20260830190105 103 0.0 0.0 0.00 0.00 0.00 32 1014.1
20260830184603 101 0.0 0.0 0.00 0.00 0.00 34 1014.2
20260830183101 102 0.0 0.0 0.00 0.00 0.00 34 1014.5
20260830181610 101 0.0 0.0 0.00 0.00 0.00 35 1014.6
20260830180105 101 0.0 0.0 0.00 0.00 0.00 35 1014.8
20260830174618 100 0.0 0.0 0.00 0.00 0.00 36 1014.9
20260830173116 100 0.0 0.0 0.00 0.00 0.00 37 1015.2
20260830171605 99 0.0 0.0 0.00 0.00 0.00 38 1015.4
20260830170110 98 0.0 0.0 0.00 0.00 0.00 39 1015.5
20260830164608 98 0.0 0.0 0.00 0.00 0.00 39 1015.7
20260830163108 97 0.0 0.0 0.00 0.00 0.00 41 1015.8
20260830161607 96 0.0 0.0 0.00 0.00 0.00 43 1015.9
20260830160106 95 142 3.0 11.0 0.00 0.00 0.00 45 1015.9
20260830154609 94 148 5.0 10.0 0.00 0.00 0.00 46 1015.9
20260830153112 92 143 5.0 10.0 0.00 0.00 0.00 48 1015.9
20260830151604 92 206 2.0 10.0 0.00 0.00 0.00 49 1015.9
20260830150101 90 136 2.0 8.0 0.00 0.00 0.00 53 1016.0
20260830144608 88 126 2.0 9.0 0.00 0.00 0.00 54 1016.1
20260830143103 86 69 3.0 8.0 0.00 0.00 0.00 55 1016.2
20260830141600 85 148 2.0 8.0 0.00 0.00 0.00 57 1016.4
20260830140104 83 166 2.0 7.0 0.00 0.00 0.00 59 1016.3
20260830134616 81 148 0.0 4.0 0.00 0.00 0.00 61 1016.3
20260830133111 80 142 0.0 4.0 0.00 0.00 0.00 63 1016.3
20260830131557 78 0 1.0 2.0 0.00 0.00 0.00 64 1016.1
20260830130106 78 152 0.0 1.0 0.00 0.00 0.00 64 1016.1
20260830124601 77 0 0.0 2.0 0.00 0.00 0.00 64 1016.1
20260830123108 77 142 0.0 2.0 0.00 0.00 0.00 64 1015.9
20260830121607 77 148 0.0 2.0 0.00 0.00 0.00 64 1015.8
20260830120101 77 136 0.0 2.0 0.00 0.00 0.00 64 1015.8
20260830114612 77 0 1.0 4.0 0.00 0.00 0.00 65 1015.5
20260830113101 77 0 0.0 2.0 0.00 0.00 0.00 64 1015.7